Regional Weather Roundup
Issued by NWS

Home | Current Version | Previous Version | Graphics & Text | Print | Product List | Glossary Off
Versions: 1 2 3 4 5 6 7 8 9 10 11 12 13 14 15 16 17 18 19 20 21 22 23 24 25 26 27 28 29 30 31 32 33 34 35 36 37 38 39 40 41 42 43 44 45 46 47 48 49 50

000
ASUS43 KMPX 190601
RWRMN
WEATHER ROUNDUP FOR MINNESOTA
NATIONAL WEATHER SERVICE TWIN CITIES/CHANHASSEN MN
1200 AM CST SUN NOV 19 2017


NOTE: "FAIR" INDICATES FEW OR NO CLOUDS BELOW 12,000 FEET WITH NO
SIGNIFICANT WEATHER AND/OR OBSTRUCTIONS TO VISIBILITY. N/A MEANS
CURRENT SKY AND/OR WEATHER CONDITIONS ARE NOT AVAILABLE.

MNZ060>063-068>070-190700-
   Twin Cities Metro

CITY           SKY/WX    TMP DP  RH WIND       PRES   REMARKS
TWIN CITIES    MOCLDY    21  11  65 NW12      30.04F WCI   9
6HR MIN TEMP:  21; 6HR MAX TEMP:  28;

ST PAUL        PTCLDY    20  10  65 NW12      30.05F WCI   8
CRYSTAL        PTCLDY    20   8  60 NW13      30.04S WCI   7
BLAINE         PTCLDY    21  12  68 NW12      30.04R WCI   9
LAKEVILLE      PTCLDY    19  12  73 W7        30.03F WCI  10
EDEN PRAIRIE   CLOUDY    22   9  57 NW13      30.04S WCI  10
6HR MIN TEMP:  22; 6HR MAX TEMP:  29;

SOUTH ST PAUL  PTCLDY    22  10  62 NW7       30.04F WCI  13
LAKE ELMO      FAIR      21  12  68 NW6       30.03F WCI  14
$$
MNZ001>005-007-008-013>017-022>024-027-028-190700-
   Northwest Minnesota

CITY           SKY/WX    TMP DP  RH WIND       PRES   REMARKS
BEMIDJI        CLEAR      9   5  82 W7        29.98F WCI  -2
HALLOCK        CLOUDY     7   1  78 W5        30.01F WCI  -2
ROSEAU         CLOUDY    10   5  79 W6        29.98S WCI   1
WARROAD        CLEAR      7   3  85 W7        29.97S WCI  -5
CROOKSTON      CLEAR     12   9  85 W5        30.05S WCI   4
FOSSTON        CLEAR      7   3  85 SW5       30.02S WCI  -2
DETROIT LAKES  CLEAR     16  10  79 W7        30.04R WCI   6
MOORHEAD       CLEAR     12   7  79 CALM      30.08R
PARK RAPIDS    CLEAR     11   6  81 W6        30.00R WCI   1
MAHNOMEN       FAIR      10   6  84 SW6       30.03S WCI   1
$$
MNZ006-009>011-018-025>026-190700-
   North Central Minnesota

CITY           SKY/WX    TMP DP  RH WIND       PRES   REMARKS
BAUDETTE       CLEAR      8   4  83 W6        29.95S WCI  -2
FLAG ISLAND    CLEAR      9   3  78 W10       29.94S WCI  -6
INTL FALLS     FLURRIES  13   6  74 W9        29.94R WCI   1
6HR MIN TEMP:  13; 6HR MAX TEMP:  16; 6HR PCP: TRACE;

WASKISH        CLEAR     12   9  85 W8        29.98R WCI   1
BIG FORK       CLEAR     10   7  85 W3        29.96R
LONGVILLE      CLEAR     14   9  79 W8        29.99S WCI   3
GRAND RAPIDS   CLEAR     12   7  80 NW15      29.98S WCI  -4
CRANE LAKE     CLOUDY    14   7  73 W5        29.94S WCI   6
ORR            FLURRIES  12   7  79 W7G16     29.90S WCI   2
COOK           CLOUDY    12   9  85 W12G18    29.93S WCI  -2
WALKER         FAIR      11   6  81 W8        29.99S WCI  -1
$$
MNZ012-019>021-037-190700-
   Northeast Minnesota

CITY           SKY/WX    TMP DP  RH WIND       PRES   REMARKS
DULUTH         FLURRIES  15   9  76 NW18G24   29.91R WCI  -2
6HR MIN TEMP:  15; 6HR MAX TEMP:  21; 6HR PCP: TRACE;

ELY            FLURRIES  12   7  79 NW7       29.90R WCI   2
HIBBING        MOCLDY    12   5  73 NW12      29.94R WCI  -2
EVELETH        FLURRIES  14   7  73 W12G20    29.94R WCI   0
DULUTH HARBOR  CLOUDY    21  12  68 W16G24    29.98R WCI   7
TWO HARBORS    CLOUDY    18  10  73 W8        29.90R WCI   7
SILVER BAY     CLOUDY    18  10  73 NW7       29.89R WCI   8
GRAND MARAIS     N/A     22  14  71 VRB5      29.89S WCI  16
G MARAIS ARPRT LGT SNOW  12   7  79 W5        29.80R WCI   4
$$
MNZ029>031-032-039>041-046>048-054>057-064-190700-
   West Central Minnesota

CITY           SKY/WX    TMP DP  RH WIND       PRES   REMARKS
FERGUS FALLS   CLEAR     12   7  79 CALM      30.10S
WHEATON        CLEAR     16  10  79 CALM      30.11S
MORRIS         CLEAR     16  10  79 W6        30.07S WCI   7
ALEXANDRIA     CLEAR     15  10  80 W9        30.04S WCI   3
ELBOW LAKE     FAIR      10   8  88 SW5       30.07F FOG     WCI   2
WADENA         CLEAR     12   7  79 W6        30.02S WCI   3
GLENWOOD       CLEAR     14  10  85 W7        30.05S WCI   4
APPLETON         N/A     12   9  85 W5        30.11S WCI   4
BENSON         CLEAR     14   9  79 NW8       30.10S WCI   3
ORTONVILLE     CLEAR     16  10  79 MISG      30.09F
MADISON        CLEAR     18  12  79 W6        30.11F WCI   9
WILLMAR        FAIR      18  12  79 NW7       30.09R WCI   8
$$
MNZ033>034-036-042>043-049>051-058-059-190700-
   Central Minnesota

CITY           SKY/WX    TMP DP  RH WIND       PRES   REMARKS
ST CLOUD       CLOUDY    17  10  74 NW7       30.04R WCI   8
6HR MIN TEMP:  17; 6HR MAX TEMP:  21;

SAUK CENTRE    FAIR      16  10  77 W7        30.05R WCI   6
PAYNESVILLE    CLOUDY    16  12  84 W7        30.06S WCI   7
AITKIN         CLEAR     12   7  79 W5        29.98R WCI   4
PINE RIVER     CLEAR     12   7  79 NW3       30.04R
BRAINERD       CLEAR     17   8  67 NW12G18   30.01S WCI   4
STAPLES        CLEAR     12   7  79 NW9       30.02S WCI   0
LONG PRAIRIE   FAIR      16   9  73 SW7       30.04S WCI   6
LITTLE FALLS   CLEAR     18   5  57 W7        30.04S WCI   8
LITCHFIELD     CLEAR     19  12  73 NW5       30.06F WCI  13
BUFFALO        PTCLDY    20  10  63 W9        30.06R WCI   9
MAPLE LAKE     PTCLDY    20  12  71 W5        30.06R WCI  14
HUTCHINSON     CLOUDY    19  13  76 W5        30.07S WCI  13
$$
MNZ037-044-045-052-053-190700-
   East Central Minnesota

CITY           SKY/WX    TMP DP  RH WIND       PRES   REMARKS
PRINCETON      MOCLDY    19  10  68 W12       30.03R WCI   7
MORA           CLOUDY    19  10  68 NW9G17    30.02R WCI   9
CAMBRIDGE      PTCLDY    19  10  68 W7        30.02R WCI  10
RUSH CITY      CLOUDY    19  12  75 W5        30.01R WCI  12
MOOSE LAKE     CLOUDY    18  10  73 NW9       29.97R WCI   6
HINCKLEY       FAIR      19  10  68 NW7       30.00R WCI  10
CLOQUET        PTCLDY    16   7  67 NW10G18   29.94R WCI   3
MCGREGOR       CLOUDY    18  10  73 NW6       29.99R WCI   9
$$
MNZ071>073-080-081-089-090-097-098-190700-
   Southwest Minnesota

CITY           SKY/WX    TMP DP  RH WIND       PRES   REMARKS
MONTEVIDEO     CLEAR     18  10  73 NW3       30.11S
GRANITE FALLS  CLEAR     15  11  86 W6        30.13S WCI   6
CANBY          CLEAR     20  14  77 SW7       30.12S WCI  11
MARSHALL       CLEAR     18  12  77 W9        30.11F WCI   7
REDWOOD FALLS  CLEAR     19   9  65 W9        30.11R WCI   8
OLIVIA         CLEAR     21  12  68 NW8       30.09S WCI  12
PIPESTONE      CLEAR     21  14  73 NW9       30.10S WCI  11
WINDOM           N/A     19   7  58 W10       30.10S WCI   8
WORTHINGTON    CLEAR     19  14  81 W10       30.12R WCI   7
JACKSON        CLEAR     21  12  68 NW12      30.10S WCI   9
SLAYTON        CLEAR     17  13  82 NW6       30.11R WCI   9
$$
MNZ065>067-074>077-082>085-091>093-190700-
   South Central Minnesota

CITY           SKY/WX    TMP DP  RH WIND       PRES   REMARKS
MANKATO        CLEAR     20  11  68 NW12      30.08S WCI   8
NEW ULM        CLEAR     19   9  63 CALM      30.10R
ST JAMES       CLEAR     19  12  73 W12       30.12R WCI   7
FAIRMONT       CLEAR     20  13  74 NW12      30.11R WCI   8
GLENCOE        PTCLDY    21  13  71 W10       30.08R WCI  10
FARIBAULT      CLEAR     19  12  73 W8        30.05S WCI   9
OWATONNA       CLEAR     19  14  79 NW13      30.05R WCI   7
WASECA         CLEAR     21  12  68 NW10G18   30.07S WCI  10
ALBERT LEA     CLEAR     19  10  68 NW12G17   30.06R WCI   7
$$
MNZ078>079-086>088-094>096-190700-
   Southeast Minnesota

CITY           SKY/WX    TMP DP  RH WIND       PRES   REMARKS
ROCHESTER      CLEAR     20  14  77 NW16      30.01R WCI   6
6HR MIN TEMP:  20; 6HR MAX TEMP:  29;

RED WING       PTCLDY    21   9  58 NW10G16   30.04R WCI  10
STANTON        CLEAR     22  15  73 NW8       30.03S WCI  12
DODGE CENTER   CLEAR     19  12  73 NW14      30.02R WCI   6
WINONA           N/A     27  18  69 NW14      30.01R WCI  15
AUSTIN         CLEAR     21  12  68 NW16G22   30.04R WCI   7
PRESTON        CLEAR     20  14  77 NW15G22   30.00R WCI   6
$$
ABBREVIATIONS USED IN REMARKS
   TC - TEMPERATURES IN CELSIUS
  WCI - WIND CHILL INDEX
   HX - HEAT INDEX
  VSB - VISIBILITY
$$



USA.gov is the U.S. government's official web portal to all federal, state and local government web resources and services.